Time,TemperatureF,DewpointF,PressureIn,WindDirection,WindDirectionDegrees,WindSpeedMPH,WindSpeedGustMPH,Humidity,HourlyPrecipIn,Conditions,Clouds,dailyrainin,SoftwareType,DateUTC
2013-07-12 00:29:00,55.8,50.0,30.10,WNW,292,0.6,0.0,81,0.00,,,-99.99,open3600,2013-07-11 22:29:00,
2013-07-12 01:01:00,56.1,50.4,30.09,West,270,1.0,0.0,81,0.00,,,-99.99,open3600,2013-07-11 23:01:00,
2013-07-12 01:16:00,56.3,50.2,30.09,NW,315,0.4,0.0,80,0.00,,,-99.99,open3600,2013-07-11 23:16:00,
2013-07-12 01:49:00,56.1,50.0,30.09,NW,315,0.0,0.0,80,0.00,,,-99.99,open3600,2013-07-11 23:49:00,
2013-07-12 02:05:00,55.9,49.8,30.09,North,0,0.5,0.0,80,0.00,,,-99.99,open3600,2013-07-12 00:05:00,
2013-07-12 02:20:00,55.8,50.0,30.09,NNW,338,0.8,0.0,81,0.00,,,-99.99,open3600,2013-07-12 00:20:00,
2013-07-12 02:36:00,55.6,49.8,30.09,WNW,292,0.1,0.0,81,0.00,,,-99.99,open3600,2013-07-12 00:36:00,
2013-07-12 02:52:00,55.6,49.8,30.09,NW,315,0.9,0.0,81,0.00,,,-99.99,open3600,2013-07-12 00:52:00,
2013-07-12 03:09:00,55.2,49.5,30.09,NW,315,2.0,0.0,81,0.00,,,-99.99,open3600,2013-07-12 01:09:00,
2013-07-12 03:43:00,55.0,49.6,30.09,West,270,1.6,0.0,82,0.00,,,-99.99,open3600,2013-07-12 01:43:00,
2013-07-12 04:33:00,54.7,49.3,30.09,West,270,1.7,0.0,82,0.00,,,-99.99,open3600,2013-07-12 02:33:00,
2013-07-12 04:48:00,54.3,48.9,30.09,WNW,292,0.4,0.0,82,0.00,,,-99.99,open3600,2013-07-12 02:48:00,
2013-07-12 05:04:00,54.3,48.9,30.09,NNW,338,0.9,0.0,82,0.00,,,-99.99,open3600,2013-07-12 03:04:00,
2013-07-12 05:36:00,54.3,48.9,30.10,NW,315,2.5,8.0,82,0.00,,,-99.99,open3600,2013-07-12 03:36:00,
2013-07-12 06:09:00,54.9,49.1,30.10,West,270,1.9,-999.0,81,0.00,,,-99.99,open3600,2013-07-12 04:09:00,
2013-07-12 06:27:00,55.2,49.1,30.10,WNW,292,1.3,0.0,80,0.00,,,-99.99,open3600,2013-07-12 04:27:00,
2013-07-12 06:42:00,55.0,49.3,30.10,WSW,248,0.4,0.0,81,0.00,,,-99.99,open3600,2013-07-12 04:42:00,
2013-07-12 06:58:00,55.0,49.3,30.10,WNW,292,0.0,0.0,81,0.00,,,-99.99,open3600,2013-07-12 04:58:00,
2013-07-12 07:13:00,55.2,49.5,30.10,NW,315,0.7,0.0,81,0.00,,,-99.99,open3600,2013-07-12 05:13:00,
2013-07-12 07:29:00,55.6,49.8,30.11,West,270,0.0,0.0,81,0.00,,,-99.99,open3600,2013-07-12 05:29:00,
2013-07-12 07:45:00,56.1,50.4,30.11,WNW,292,0.7,0.0,81,0.00,,,-99.99,open3600,2013-07-12 05:45:00,
2013-07-12 08:00:00,56.5,50.7,30.11,West,270,0.6,0.0,81,0.00,,,-99.99,open3600,2013-07-12 06:00:00,
2013-07-12 08:32:00,57.9,51.4,30.12,NW,315,0.4,0.0,79,-99.99,,,-99.99,open3600,2013-07-12 06:32:00,
2013-07-12 08:48:00,58.5,51.6,30.12,NNW,338,0.7,0.0,78,-99.99,,,-99.99,open3600,2013-07-12 06:48:00,
2013-07-12 09:03:00,58.3,51.8,30.13,WNW,292,0.3,0.0,79,-99.99,,,-99.99,open3600,2013-07-12 07:03:00,
2013-07-12 09:19:00,58.6,51.8,30.12,WNW,292,0.6,0.0,78,0.00,,,-99.99,open3600,2013-07-12 07:19:00,
2013-07-12 09:34:00,59.2,52.3,30.13,WNW,292,1.1,0.0,78,0.00,,,-99.99,open3600,2013-07-12 07:34:00,
2013-07-12 09:50:00,60.1,52.5,30.13,NW,315,1.6,7.0,76,0.00,,,-99.99,open3600,2013-07-12 07:50:00,
2013-07-12 10:06:00,60.6,52.7,30.13,NNW,338,1.4,0.0,75,0.00,,,-99.99,open3600,2013-07-12 08:06:00,
2013-07-12 10:22:00,61.0,52.7,30.13,NNW,338,1.7,8.0,74,0.00,,,-99.99,open3600,2013-07-12 08:22:00,
2013-07-12 10:34:00,62.1,52.9,30.13,North,0,0.1,0.0,72,0.00,,,-99.99,open3600,2013-07-12 08:34:00,
2013-07-12 10:37:00,62.1,52.9,30.13,North,0,0.1,0.0,72,0.00,,,-99.99,open3600,2013-07-12 08:37:00,
2013-07-12 11:11:00,62.2,52.3,30.13,NNW,338,0.8,10.0,70,0.00,,,-99.99,open3600,2013-07-12 09:11:00,
2013-07-12 11:26:00,63.3,50.9,30.13,North,0,0.9,13.0,64,0.00,,,-99.99,open3600,2013-07-12 09:26:00,
2013-07-12 11:42:00,64.6,51.3,30.12,NNW,338,1.1,0.0,62,0.00,,,-99.99,open3600,2013-07-12 09:42:00,
2013-07-12 11:57:00,65.8,50.7,30.12,North,0,0.3,0.0,58,0.00,,,-99.99,open3600,2013-07-12 09:57:00,
2013-07-12 12:13:00,66.6,51.3,30.12,NNW,338,0.0,0.0,58,0.00,,,-99.99,open3600,2013-07-12 10:13:00,
2013-07-12 12:29:00,67.3,52.0,30.12,NW,315,1.7,10.0,58,0.00,,,-99.99,open3600,2013-07-12 10:29:00,
2013-07-12 12:44:00,67.1,51.4,30.12,NNW,338,0.7,0.0,57,0.00,,,-99.99,open3600,2013-07-12 10:44:00,
2013-07-12 13:00:00,66.9,50.7,30.12,NNW,338,0.0,0.0,56,0.00,,,-99.99,open3600,2013-07-12 11:00:00,
2013-07-12 13:16:00,66.7,52.3,30.12,NNW,338,0.2,0.0,60,0.00,,,-99.99,open3600,2013-07-12 11:16:00,
2013-07-12 13:31:00,67.5,52.7,30.11,NW,315,0.0,0.0,59,0.00,,,-99.99,open3600,2013-07-12 11:31:00,
2013-07-12 13:47:00,67.1,52.3,30.11,NNW,338,0.0,0.0,59,0.00,,,-99.99,open3600,2013-07-12 11:47:00,
2013-07-12 14:02:00,66.6,51.8,30.12,NW,315,0.0,0.0,59,0.00,,,-99.99,open3600,2013-07-12 12:02:00,
2013-07-12 14:18:00,67.1,50.9,30.11,North,0,0.5,0.0,56,0.00,,,-99.99,open3600,2013-07-12 12:18:00,
2013-07-12 14:34:00,67.6,51.4,30.11,NW,315,0.0,0.0,56,0.00,,,-99.99,open3600,2013-07-12 12:34:00,
2013-07-12 14:49:00,66.6,50.9,30.12,NW,315,0.0,0.0,57,0.00,,,-99.99,open3600,2013-07-12 12:49:00,
2013-07-12 15:05:00,66.9,51.3,30.12,NW,315,0.0,0.0,57,0.00,,,-99.99,open3600,2013-07-12 13:05:00,
2013-07-12 15:20:00,66.9,52.2,30.12,NE,45,0.0,0.0,59,0.00,,,-99.99,open3600,2013-07-12 13:20:00,
2013-07-12 15:36:00,66.9,50.7,30.12,North,0,0.0,0.0,56,0.00,,,-99.99,open3600,2013-07-12 13:36:00,
2013-07-12 15:52:00,66.6,50.9,30.12,NNW,338,0.0,0.0,57,0.00,,,-99.99,open3600,2013-07-12 13:52:00,
2013-07-12 16:09:00,66.4,51.1,30.12,NW,315,0.4,6.0,58,0.00,,,-99.99,open3600,2013-07-12 14:09:00,
2013-07-12 16:26:00,65.8,51.1,30.12,NW,315,0.4,0.0,59,0.00,,,-99.99,open3600,2013-07-12 14:26:00,
2013-07-12 16:42:00,65.8,51.6,30.12,NW,315,0.0,0.0,60,0.00,,,-99.99,open3600,2013-07-12 14:42:00,
2013-07-12 16:58:00,65.8,51.6,30.12,NW,315,0.0,0.0,60,0.00,,,-99.99,open3600,2013-07-12 14:58:00,
2013-07-12 17:13:00,65.8,51.6,30.12,NW,315,0.0,0.0,60,0.00,,,-99.99,open3600,2013-07-12 15:13:00,
2013-07-12 17:29:00,66.2,52.0,30.12,NW,315,0.0,0.0,60,0.00,,,-99.99,open3600,2013-07-12 15:29:00,
2013-07-12 17:45:00,66.9,51.3,30.11,NNW,338,0.0,0.0,57,0.00,,,-99.99,open3600,2013-07-12 15:45:00,
2013-07-12 18:00:00,66.4,51.1,30.11,NNW,338,0.0,0.0,58,0.00,,,-99.99,open3600,2013-07-12 16:00:00,
2013-07-12 18:16:00,66.0,51.3,30.11,NW,315,0.0,0.0,59,0.00,,,-99.99,open3600,2013-07-12 16:16:00,
2013-07-12 18:28:00,66.0,50.9,30.11,NNW,338,0.0,0.0,58,0.00,,,-99.99,open3600,2013-07-12 16:28:00,
2013-07-12 18:31:00,66.0,50.9,30.11,NNW,338,0.0,0.0,58,0.00,,,-99.99,open3600,2013-07-12 16:31:00,
2013-07-12 19:04:00,66.0,51.3,30.11,NW,315,0.0,0.0,59,0.00,,,-99.99,open3600,2013-07-12 17:04:00,
2013-07-12 19:16:00,65.8,51.6,30.11,NW,315,0.0,0.0,60,0.00,,,-99.99,open3600,2013-07-12 17:16:00,
2013-07-12 19:20:00,65.8,51.6,30.11,NW,315,0.0,0.0,60,0.00,,,-99.99,open3600,2013-07-12 17:20:00,
2013-07-12 19:55:00,65.1,50.9,30.11,NW,315,0.0,0.0,60,0.00,,,-99.99,open3600,2013-07-12 17:55:00,
2013-07-12 20:10:00,64.8,51.1,30.11,NW,315,0.0,0.0,61,0.00,,,-99.99,open3600,2013-07-12 18:10:00,
2013-07-12 20:22:00,64.2,50.9,30.11,NW,315,0.0,0.0,62,0.00,,,-99.99,open3600,2013-07-12 18:22:00,
2013-07-12 20:26:00,64.2,50.9,30.11,NW,315,0.0,0.0,62,0.00,,,-99.99,open3600,2013-07-12 18:26:00,
2013-07-12 21:16:00,61.5,51.3,30.12,NW,315,0.0,0.0,69,0.00,,,-99.99,open3600,2013-07-12 19:16:00,
2013-07-12 21:32:00,60.4,50.2,30.13,NW,315,0.0,0.0,69,0.00,,,-99.99,open3600,2013-07-12 19:32:00,
2013-07-12 21:48:00,59.7,50.4,30.13,NW,315,0.0,0.0,71,0.00,,,-99.99,open3600,2013-07-12 19:48:00,
2013-07-12 22:04:00,59.0,50.0,30.13,NW,315,0.0,0.0,72,0.00,,,-99.99,open3600,2013-07-12 20:04:00,
2013-07-12 22:36:00,57.4,49.1,30.14,NW,315,0.0,0.0,74,0.00,,,-99.99,open3600,2013-07-12 20:36:00,
2013-07-12 22:52:00,56.8,49.1,30.14,NW,315,0.0,0.0,75,0.00,,,-99.99,open3600,2013-07-12 20:52:00,
2013-07-12 23:07:00,56.1,49.1,30.14,NW,315,0.0,0.0,77,0.00,,,-99.99,open3600,2013-07-12 21:07:00,
2013-07-12 23:23:00,55.6,48.6,30.14,NW,315,0.0,0.0,77,0.00,,,-99.99,open3600,2013-07-12 21:23:00,
2013-07-12 23:39:00,55.0,48.4,30.14,NW,315,0.0,0.0,78,0.00,,,-99.99,open3600,2013-07-12 21:39:00,
2013-07-12 23:54:00,54.3,48.0,30.14,NW,315,0.0,0.0,79,0.00,,,-99.99,open3600,2013-07-12 21:54:00,